Location: Novokuznetsk
(53.7500°N, 87.1000°E)
Time: 05:02:37
(UTC+06:00)

ISS - Pass Details

Date: 18 July 2018
Orbit: 402 x 408 km, 51.6° (Epoch: 16 July)

Event Time Altitude Azimuth Distance (km) Brightness Sun altitude
Exits shadow 00:12:27 32° 209° (SSW) 722 -3.0 -15.1°
Maximum altitude 00:13:27 43° 163° (SSE) 585 -3.5 -15.1°
Drops below altitude 10° 00:16:35 10° 91° (E) 1,470 -1.0 -15.1°
Sets 00:18:44 0° 85° (E) 2,333 0.1 -15.1°
